Wind_Speed
57 64 71 76 81 84 87 88 89 88 87 85 83 82 81 80 78 77 75 74 72 71 69 68 66 64 63 62 61 60 58 57 56 55 54 53 52 51
46 51 56 62 69 75 80 84 88 89 89 88 86 84 83 82 81 80 78 76 74 73 71 69 68 66 65 64 63 62 61 60 58 57 56 55 54 53
40 43 46 50 55 62 68 74 80 84 87 88 88 86 85 84 83 82 81 79 77 75 73 71 70 68 66 65 64 62 61 59 58 57 57 57 56 55
39 40 42 44 46 50 56 63 69 75 80 83 85 86 85 84 84 83 83 82 80 79 77 74 72 70 69 67 67 65 63 62 62 61 59 58 58 58
40 40 41 42 43 45 48 52 58 64 71 75 78 80 82 82 82 82 83 83 82 81 79 78 76 74 73 72 70 69 67 67 66 64 64 63 61 61
42 41 41 42 42 43 44 46 51 55 61 65 68 71 74 75 76 77 78 80 80 81 81 79 78 77 76 76 74 73 72 72 70 69 69 68 67 66
44 44 43 42 42 41 42 43 45 49 52 56 59 61 63 65 67 69 72 73 73 76 78 79 78 77 78 77 77 76 75 75 74 73 72 71 71 70
46 46 44 43 43 42 41 42 43 45 49 52 54 56 57 58 60 63 65 68 70 72 74 75 77 77 77 77 77 77 77 77 77 77 76 75 74 73
47 47 46 45 44 43 41 42 43 42 46 49 51 53 54 55 56 58 60 63 67 70 73 75 76 78 79 80 81 81 80 80 79 80 80 79 78 77
46 47 47 46 45 44 43 43 43 43 43 46 49 53 55 55 56 57 58 60 61 66 70 73 75 76 77 79 80 80 81 83 82 80 79 80 80 78
46 47 47 47 47 45 45 44 45 46 45 45 47 49 52 54 56 57 58 58 58 59 64 67 70 72 74 75 76 76 77 79 79 79 78 77 77 77
44 46 47 47 47 47 46 45 46 48 47 47 48 49 49 51 53 56 58 59 58 56 57 59 61 63 65 66 67 69 70 71 72 72 72 73 74 75
41 44 47 48 48 48 47 47 46 46 47 47 48 49 50 50 53 54 56 58 59 57 55 54 55 57 57 58 60 60 61 62 64 65 66 68 69 70
38 42 46 48 49 49 49 48 47 47 46 46 48 49 50 51 51 53 54 55 56 55 55 55 54 54 54 54 55 55 56 57 58 59 61 62 64 65
36 40 44 47 48 49 49 49 49 48 48 48 48 49 50 51 52 52 53 54 54 54 55 56 56 55 54 54 54 54 54 55 55 56 57 58 59 60
33 38 42 44 47 48 50 50 50 50 50 50 50 50 50 51 52 53 53 53 53 53 53 54 55 54 54 54 54 53 53 53 53 53 53 54 55 55
28 34 39 42 45 47 49 50 51 51 50 51 51 51 52 52 52 53 53 54 54 53 53 53 53 53 53 53 53 53 52 51 50 50 50 50 51 52
23 28 34 39 42 45 48 50 51 51 51 51 51 52 52 53 54 54 54 55 55 54 53 53 52 52 52 52 51 51 50 49 48 48 48 48 49 50
18 22 27 33 38 42 46 48 50 51 51 51 51 52 52 53 54 55 56 56 55 55 54 53 53 52 51 51 50 49 48 47 47 46 46 47 48 48
14 17 21 27 33 38 42 46 49 50 51 51 51 51 51 52 53 54 55 56 56 55 54 54 53 51 50 49 49 49 48 46 46 45 45 45 45 45
12 14 16 20 26 32 38 43 47 49 50 51 51 51 51 51 51 52 53 54 54 55 54 53 52 51 50 49 48 47 46 45 44 43 42 42 42 43
11 12 14 17 21 26 32 38 43 47 50 51 51 51 51 51 50 50 51 51 52 52 53 52 51 49 49 47 46 45 44 43 42 41 40 39 39 39
9 11 13 16 18 22 27 32 38 44 48 50 52 52 51 51 50 50 50 50 50 50 50 50 50 49 48 47 45 44 42 41 40 39 38 37 36 36
Wind_Direction
240 241 242 242 243 243 244 244 244 242 240 238 237 237 237 237 237 238 238 239 239 240 240 241 242 242 242 242 243 244 244 245 246 247 248 248 249 250
239 239 240 241 242 243 243 244 244 244 243 241 240 238 238 238 237 238 238 238 239 239 239 239 240 241 241 241 242 243 243 244 244 244 245 246 247 249
240 239 239 239 240 241 242 242 243 243 244 243 242 241 240 239 238 238 238 238 238 238 238 238 238 239 239 240 240 240 241 241 241 242 244 245 246 248
242 241 240 240 240 241 241 241 241 241 241 241 241 241 240 240 239 238 238 237 237 237 237 237 237 237 238 238 238 239 239 240 240 242 243 244 245 246
243 243 242 242 243 243 243 241 240 239 239 239 239 239 238 238 238 238 238 237 237 237 237 237 236 236 237 236 237 237 238 238 240 241 242 243 244 246
243 243 243 243 245 244 244 242 239 237 236 235 235 235 235 234 234 235 235 235 236 236 236 236 236 236 236 237 238 238 238 238 240 241 242 243 244 246
242 242 242 243 243 243 244 241 237 234 231 230 229 230 231 230 229 230 230 230 231 232 233 235 235 236 236 236 237 237 238 238 239 240 242 243 244 246
240 240 240 240 239 240 241 237 234 231 228 224 223 223 224 224 224 224 225 225 225 227 229 229 231 231 232 233 234 235 236 237 238 238 240 242 242 243
238 238 237 237 236 236 236 233 230 228 223 219 217 216 217 218 219 220 221 223 225 226 226 225 226 227 228 230 231 232 233 235 236 237 239 241 242 244
235 235 234 234 233 232 231 229 226 221 217 215 214 215 214 213 214 215 217 219 221 223 225 227 227 228 228 230 231 233 234 235 237 239 240 242 244 247
233 231 231 230 229 228 228 227 225 220 218 216 212 212 213 214 215 215 215 216 219 223 226 227 229 231 232 233 234 235 236 238 240 242 244 245 247 249
231 228 227 227 226 225 225 224 224 222 222 220 216 213 212 212 213 215 215 217 218 221 225 228 230 232 234 235 237 238 239 240 242 243 245 247 249 250
230 227 225 224 223 222 222 222 222 222 223 222 220 218 216 216 216 216 218 219 221 223 224 227 229 231 234 235 237 239 241 242 243 245 246 248 249 251
228 226 224 222 221 220 220 221 221 220 220 220 220 219 218 217 217 217 218 219 221 223 224 226 228 230 233 234 236 238 239 241 243 245 247 248 250 251
227 225 223 221 219 219 219 220 220 219 218 218 218 218 219 219 219 219 220 221 222 223 224 225 227 229 232 234 235 237 239 241 243 245 247 248 249 250
228 225 224 222 220 218 218 219 219 219 219 218 218 218 218 219 219 220 220 221 222 223 224 226 228 230 232 233 235 237 239 240 242 243 245 246 248 249
230 227 224 222 221 219 218 219 219 219 220 219 219 219 218 219 220 221 222 222 222 224 226 227 229 231 232 234 235 236 237 238 240 242 244 245 247 248
233 230 226 224 222 221 220 219 219 220 220 221 220 220 219 220 220 221 222 223 223 225 227 229 230 231 232 234 234 235 236 238 240 242 244 246 248 250
238 234 230 226 224 223 221 220 220 220 221 221 222 221 221 221 221 222 223 223 225 226 228 229 230 231 232 234 234 235 237 238 240 242 245 247 249 250
245 240 235 231 227 224 223 222 221 221 221 222 222 222 222 222 222 223 223 224 225 226 228 229 230 231 233 234 235 236 237 239 241 243 245 247 249 250
256 250 243 237 231 227 225 224 223 222 222 222 222 223 223 223 223 223 224 224 224 226 227 228 229 230 232 233 234 236 237 239 241 243 245 247 248 249
271 261 253 245 237 232 228 226 224 224 223 223 223 223 223 224 224 224 224 223 224 224 226 227 228 229 230 232 233 235 237 238 239 241 244 245 246 245
297 275 262 253 244 237 232 228 226 225 224 224 224 223 223 224 224 224 223 223 223 223 224 226 227 228 229 230 232 233 235 236 238 240 241 241 241 240
Height
5483 5489 5497 5505 5513 5522 5531 5539 5549 5559 5571 5583 5592 5602 5610 5620 5629 5637 5646 5655 5663 5670 5678 5685 5692 5699 5705 5710 5715 5720 5725 5730 5735 5740 5745 5749 5754 5758
5468 5473 5479 5486 5493 5501 5509 5518 5526 5537 5549 5561 5571 5582 5591 5601 5610 5619 5628 5637 5645 5654 5662 5670 5677 5684 5690 5696 5701 5707 5712 5717 5722 5727 5732 5737 5741 5746
5455 5460 5465 5470 5476 5483 5489 5497 5505 5514 5526 5539 5548 5561 5571 5581 5591 5601 5610 5619 5627 5636 5645 5654 5662 5669 5675 5682 5687 5692 5698 5703 5708 5714 5719 5724 5729 5734
5443 5448 5452 5457 5462 5467 5472 5479 5486 5494 5504 5516 5527 5539 5550 5561 5571 5581 5591 5600 5609 5618 5628 5637 5645 5653 5660 5667 5672 5678 5684 5689 5695 5701 5707 5712 5716 5720
5431 5435 5439 5444 5448 5453 5457 5462 5469 5476 5485 5495 5506 5517 5529 5540 5551 5560 5570 5580 5590 5600 5609 5619 5628 5636 5644 5651 5657 5664 5671 5677 5683 5687 5692 5697 5702 5707
5417 5422 5426 5430 5435 5439 5443 5448 5453 5460 5467 5477 5487 5498 5509 5520 5531 5541 5550 5560 5571 5581 5591 5601 5610 5618 5627 5636 5644 5650 5655 5661 5667 5673 5678 5683 5688 5693
5403 5408 5413 5417 5421 5426 5430 5434 5440 5446 5453 5461 5471 5481 5492 5502 5513 5523 5533 5542 5552 5561 5572 5584 5595 5604 5609 5617 5624 5632 5639 5645 5651 5657 5662 5668 5673 5678
5388 5393 5399 5404 5408 5413 5417 5422 5428 5433 5441 5449 5458 5468 5477 5488 5498 5507 5516 5526 5537 5547 5557 5565 5574 5582 5591 5599 5607 5614 5622 5628 5633 5640 5646 5651 5657 5662
5373 5379 5384 5390 5395 5400 5406 5411 5416 5422 5430 5438 5446 5455 5465 5475 5485 5495 5503 5511 5521 5530 5538 5546 5554 5564 5573 5581 5589 5597 5604 5611 5617 5623 5629 5635 5640 5645
5358 5364 5370 5376 5382 5388 5394 5400 5406 5412 5419 5427 5435 5443 5452 5461 5471 5481 5489 5498 5506 5513 5520 5529 5537 5546 5555 5563 5571 5579 5586 5593 5599 5605 5612 5618 5623 5627
5342 5349 5355 5362 5369 5375 5382 5388 5395 5402 5408 5415 5423 5431 5440 5450 5459 5468 5476 5484 5492 5499 5507 5515 5523 5531 5538 5546 5554 5562 5569 5576 5582 5589 5595 5601 5606 5611
5327 5334 5341 5348 5355 5362 5370 5377 5383 5390 5397 5405 5413 5421 5430 5438 5447 5455 5464 5472 5480 5487 5495 5503 5511 5517 5524 5531 5539 5546 5554 5560 5567 5574 5580 5585 5590 5595
5313 5320 5326 5334 5342 5350 5357 5364 5371 5379 5386 5394 5402 5410 5419 5427 5435 5443 5452 5461 5469 5476 5485 5493 5499 5506 5513 5521 5528 5534 5540 5547 5554 5560 5566 5571 5575 5580
5300 5306 5312 5320 5329 5337 5345 5353 5360 5368 5376 5384 5392 5399 5407 5416 5424 5432 5440 5448 5457 5465 5474 5481 5488 5496 5502 5509 5516 5522 5529 5535 5541 5547 5552 5557 5561 5565
5288 5293 5300 5308 5317 5326 5334 5341 5349 5357 5365 5373 5381 5389 5397 5405 5413 5421 5429 5438 5446 5454 5462 5470 5477 5484 5491 5498 5505 5511 5517 5523 5529 5534 5539 5543 5548 5551
5278 5283 5290 5297 5305 5314 5322 5330 5338 5346 5354 5362 5370 5378 5386 5394 5402 5411 5419 5427 5435 5443 5450 5458 5466 5473 5480 5486 5493 5500 5506 5512 5517 5522 5526 5531 5535 5538
5270 5275 5281 5287 5295 5302 5311 5319 5327 5335 5343 5351 5359 5367 5375 5383 5391 5400 5408 5416 5424 5432 5439 5447 5454 5461 5468 5475 5482 5488 5494 5500 5505 5510 5515 5519 5523 5526
5264 5267 5272 5278 5285 5292 5300 5308 5316 5324 5332 5340 5348 5356 5364 5372 5380 5388 5396 5404 5413 5420 5428 5436 5443 5450 5457 5464 5470 5477 5483 5489 5494 5499 5503 5507 5510 5514
5259 5262 5266 5270 5276 5283 5290 5297 5305 5313 5321 5329 5337 5345 5353 5361 5369 5377 5385 5393 5401 5409 5417 5424 5432 5439 5446 5453 5460 5466 5472 5478 5483 5488 5492 5495 5498 5501
5256 5258 5260 5264 5269 5274 5280 5287 5295 5303 5311 5318 5326 5334 5342 5350 5358 5365 5373 5381 5389 5397 5405 5413 5420 5428 5435 5442 5449 5455 5461 5467 5472 5476 5480 5483 5486 5489
5253 5254 5256 5258 5262 5266 5271 5278 5285 5292 5299 5307 5315 5323 5331 5339 5346 5354 5362 5369 5378 5386 5394 5402 5409 5417 5424 5432 5438 5444 5451 5456 5460 5465 5469 5472 5475 5478
5250 5251 5252 5253 5256 5259 5263 5268 5274 5281 5288 5296 5304 5312 5320 5327 5335 5343 5350 5358 5366 5374 5383 5391 5398 5406 5413 5421 5427 5434 5440 5445 5450 5454 5458 5462 5464 5468
5248 5247 5247 5248 5249 5252 5255 5259 5264 5270 5277 5284 5292 5300 5308 5316 5324 5332 5340 5348 5355 5364 5372 5380 5388 5395 5403 5410 5417 5423 5429 5435 5440 5444 5448 5452 5455 5458